Hourly Data Report for March 14, 2003

SHERBROOKE A
QUEBEC

45°26'00.000" N
71°41'00.000" W
241.40 m
7028124
71610
YSC

Download Data

Hourly Data (March 2003)
Hourly Data Report for March 14, 2003
TIME
LST
Temp Definition
°C
Dew Point Definition
°C
Rel Hum Definition
%
Precip. Amount Definition
mm

Wind Dir Definition
10's deg

Wind Spd Definition
km/h
Visibility Definition
km
Stn Press Definition
kPa
Hmdx Definition


Wind Chill Definition


Weather Definition


00:00 -19.5 -27.8 48   27 7 15.0 99.30   -25  
01:00 -20.2 -28.2 49   28 6 15.0 99.36   -25  
02:00 -22.0 -28.8 54   26 9 15.0 99.37   -29  
03:00 -27.4 -32.9 59   28 6 15.0 99.40   -34  
04:00 -29.2 -35.2 56   26 4 15.0 99.48   -34  
05:00 -25.6 -31.1 60   28 9 15.0 99.53   -33  
06:00 -24.9 -30.9 57   27 13 15.0 99.66   -34  
07:00 -22.9 -28.5 60   28 13 15.0 99.74   -32  
08:00 -17.7 -25.4 51   30 13 24.1 99.81   -26 Mainly Clear
09:00 -16.2 -25.6 44   31 13 24.1 99.81   -24 Mainly Clear
10:00 -14.6 -24.9 41   28 15 24.1 99.82   -22 Mainly Clear
11:00 -13.4 -24.8 38   25 19 24.1 99.75   -22 Mainly Clear
12:00 -12.5 -23.8 38   29 15 24.1 99.70   -20 Mainly Clear
13:00 -11.2 -23.2 36   28 17 24.1 99.57   -19 Mainly Clear
14:00 -10.9 -23.4 35   26 13 24.1 99.50   -17 Mainly Clear
15:00 -10.8 -22.6 37   27 22 24.1 99.45   -19 Mostly Cloudy
16:00 -10.3 -23.1 34   26 19 24.1 99.45   -18 Mostly Cloudy
17:00 -10.3 -22.6 36   27 11 24.1 99.45   -16 Mostly Cloudy
18:00 -10.3 -22.9 35   26 7 15.0 99.45   -14  
19:00 -10.4 -22.6 36   25 7 15.0 99.47   -14  
20:00 -10.3 -22.5 36   22 6 15.0 99.45   -14  
21:00 -10.8 -22.8 37   21 6 15.0 99.43   -14  
22:00 -10.8 -23.0 36   22 7 15.0 99.40   -15  
23:00 -12.0 -22.6 41   21 6 15.0 99.38   -16  

Notes on Data Quality.

Legend

  • E = Estimated
  • M = Missing
  • NA = Not Available*
  • [empty] = Indicates an unobserved value
Date modified: